CAPE
nan nan nan nan nan nan nan nan nan nan nan nan nan nan nan nan nan nan nan nan nan nan nan nan nan nan nan nan 2 2 5 7 6 6 6 4 2 2 0 nan nan nan nan nan nan nan nan nan nan nan nan nan nan nan nan nan nan nan nan nan nan nan 2 6 6 10 13 14 13 13 12 8 5 5 3 3 5 5 9 11 11 10 9 9 9 9
nan nan nan nan nan nan nan nan nan nan nan nan nan nan nan nan nan nan nan nan nan nan nan nan nan nan nan nan 2 2 6 7 7 7 5 4 2 2 0 nan nan nan nan nan nan nan nan nan nan nan nan nan nan nan nan nan nan nan nan nan nan nan nan 0 0 2 6 8 7 7 5 3 2 2 2 3 6 6 10 13 13 12 11 11 11 12
nan nan nan nan nan nan nan nan nan nan nan nan nan nan nan nan nan nan nan nan nan nan nan nan nan nan nan nan 4 4 6 7 6 6 5 3 1 1 0 nan nan nan nan nan nan nan nan nan nan nan nan nan nan nan nan nan nan nan nan nan nan nan nan nan nan nan nan 0 1 1 0 nan nan nan 1 3 7 7 10 11 11 11 10 10 10 11
nan nan nan nan nan nan nan nan nan nan nan nan nan nan nan nan nan nan nan nan nan nan nan nan nan nan nan nan nan nan 6 6 4 4 3 1 0 0 nan nan nan nan nan nan nan nan nan nan nan nan nan nan nan nan nan nan nan nan nan nan nan nan nan nan nan nan nan nan nan nan nan nan nan nan nan 1 5 5 6 7 7 6 7 9 9 10
nan nan nan nan nan nan nan nan nan nan nan nan nan nan nan nan nan nan nan nan nan nan nan nan nan nan nan nan nan nan 2 3 1 1 0 nan nan nan nan nan nan nan nan nan nan nan nan nan nan nan nan nan nan nan nan nan nan nan nan nan nan nan nan nan nan nan nan nan nan nan nan nan nan nan nan 0 1 1 2 3 3 3 5 7 7 9
nan nan nan nan nan nan nan nan 0 0 nan nan nan nan nan nan nan nan nan nan nan nan nan nan nan nan nan nan nan nan nan nan nan nan nan nan nan nan nan nan nan nan nan nan nan nan nan nan nan nan nan nan nan nan nan nan nan nan nan nan nan nan nan nan nan nan nan nan nan nan nan nan nan nan nan nan nan nan 1 1 1 3 4 6 6 8
nan nan nan nan nan nan nan nan nan nan nan nan nan nan nan nan nan nan nan nan nan nan nan nan nan nan nan nan nan nan nan nan nan nan nan nan nan nan nan nan nan nan nan nan nan nan nan nan nan nan nan nan nan nan nan nan nan nan nan nan nan nan nan nan nan nan nan nan nan nan nan nan nan nan nan nan nan nan nan 1 1 2 4 6 6 9
nan nan nan nan nan nan nan nan nan nan nan nan nan nan nan nan nan nan nan nan nan nan nan nan nan nan nan nan nan nan nan nan nan nan nan nan nan nan nan nan nan nan nan nan nan nan nan nan nan nan nan nan nan nan nan nan nan nan nan nan nan nan nan nan nan nan nan nan nan nan nan nan 0 0 1 1 1 1 0 1 1 2 3 6 6 9
nan nan nan nan nan nan nan nan nan nan nan nan nan nan nan nan nan nan nan nan nan nan nan nan nan nan nan nan nan nan nan nan nan nan nan nan nan nan nan nan nan nan nan nan nan nan nan nan nan nan nan nan nan nan nan nan nan nan nan nan nan nan nan nan nan nan nan nan nan nan nan nan 0 0 1 2 1 1 1 0 0 1 3 7 7 8
nan nan nan nan nan nan nan nan nan nan nan nan nan nan nan nan nan nan nan nan nan nan nan nan nan nan nan nan nan nan nan nan nan nan nan nan nan nan nan nan nan nan nan nan nan nan nan nan nan nan nan nan nan nan nan nan nan nan nan nan nan nan nan nan nan nan nan nan nan nan nan nan nan nan nan 1 1 1 0 0 0 1 3 5 5 8
nan nan nan nan nan nan nan nan nan nan nan nan nan nan nan nan nan nan nan nan nan nan nan nan nan nan nan nan nan nan nan nan nan nan nan nan nan nan nan nan nan nan nan nan nan nan nan nan nan nan nan nan nan nan nan nan nan nan nan nan nan 0 0 0 0 0 nan nan nan nan nan nan nan nan nan 0 0 0 0 0 0 1 3 3 3 6
nan nan nan nan nan nan nan nan nan nan nan nan nan nan nan nan nan nan nan nan nan nan nan nan nan nan nan nan nan nan nan nan nan nan nan nan nan nan nan nan nan nan nan nan nan nan nan nan nan nan nan nan nan nan nan nan nan nan nan 0 0 0 1 1 1 1 1 1 1 1 0 0 0 0 0 1 1 1 1 2 2 3 2 3 3 6
nan nan nan nan nan nan nan nan nan nan nan nan nan nan nan nan nan nan nan nan nan nan nan nan nan nan nan nan nan nan nan nan nan nan nan nan nan nan nan nan nan nan nan nan nan nan nan nan nan nan nan nan nan nan nan nan nan nan 0 1 1 2 1 1 1 1 2 2 2 2 3 3 3 3 3 2 2 2 2 3 3 3 3 4 4 8
nan nan nan nan nan nan nan nan nan nan nan nan nan nan nan nan nan nan nan nan nan nan nan nan nan nan nan nan nan nan nan nan nan nan nan nan nan nan nan nan nan nan nan nan nan nan nan nan nan nan nan nan nan nan nan nan nan nan 1 2 2 3 2 2 2 2 2 2 2 2 3 4 5 5 3 3 3 3 3 3 3 4 5 8 8 11
nan nan nan nan nan nan nan nan nan nan nan nan nan nan nan nan nan nan nan nan nan nan nan nan nan nan nan nan nan nan nan nan nan nan nan nan nan nan nan nan nan nan nan nan nan nan nan nan nan nan nan nan nan nan nan 2 2 1 1 2 2 3 2 2 2 2 2 2 2 2 2 3 6 6 4 3 3 3 3 4 4 5 8 10 10 13
nan nan nan nan nan nan nan nan nan nan nan nan nan nan nan nan nan nan nan nan nan nan nan nan nan nan nan nan nan nan nan nan nan nan nan nan nan nan nan nan nan nan nan nan nan nan nan nan nan nan nan nan nan nan 0 1 1 0 1 2 2 2 1 1 1 2 2 2 2 2 2 2 5 5 5 4 4 4 4 5 5 7 9 11 11 13
nan nan nan nan nan nan nan nan nan nan nan nan nan nan nan nan nan nan nan nan nan nan nan nan nan nan nan nan nan nan nan nan nan nan nan nan nan nan nan nan nan nan nan nan nan nan nan nan nan nan nan nan nan nan nan nan nan 0 2 2 2 1 1 2 2 1 1 1 1 1 2 1 2 2 5 6 5 5 5 6 6 8 10 13 13 14
nan nan nan nan nan nan nan nan nan nan nan nan nan nan nan nan nan nan nan nan nan nan nan nan nan nan nan nan nan nan nan nan nan nan nan nan nan nan nan nan nan nan nan nan nan nan nan nan nan nan nan nan nan nan nan nan nan 0 1 1 1 1 2 2 2 2 2 2 2 2 1 1 2 2 4 6 6 6 5 6 6 8 10 13 13 15
nan nan nan nan nan nan nan nan nan nan nan nan nan nan nan nan nan nan nan nan nan nan nan nan nan nan nan nan nan nan nan nan nan nan nan nan nan nan nan nan nan nan nan nan nan nan nan nan nan nan nan nan nan nan nan nan nan 1 1 0 0 1 3 3 3 3 3 3 2 2 2 1 2 2 3 5 7 7 7 7 7 8 10 12 12 17
nan nan nan nan nan nan nan nan nan nan nan nan nan nan nan nan nan nan nan nan nan nan nan nan nan nan nan nan nan nan nan nan nan nan nan nan nan nan nan nan nan nan nan nan nan nan nan nan nan nan nan nan nan nan 0 0 0 0 nan 0 0 2 3 4 4 4 5 4 4 4 3 3 3 3 3 5 6 6 8 9 9 8 9 11 11 15
nan nan nan nan nan nan nan nan nan nan nan nan nan nan nan nan nan nan nan nan nan nan nan nan nan nan nan nan nan nan nan nan nan nan nan nan nan nan nan nan nan nan nan nan nan nan nan nan nan nan nan nan nan nan 0 nan nan nan nan 0 0 1 2 2 2 3 4 5 5 5 6 5 5 5 6 6 7 7 8 9 9 9 9 11 11 13
nan nan nan nan nan nan nan nan nan nan nan nan nan nan nan nan nan nan nan nan nan nan nan nan nan nan nan nan nan nan nan nan nan nan nan nan nan nan nan nan nan nan nan nan nan nan nan nan nan nan nan nan nan nan nan nan nan nan 0 0 0 0 1 1 1 1 2 3 4 4 5 6 8 8 7 8 9 9 11 12 12 13 13 12 12 14
nan nan nan nan nan nan nan nan nan nan nan nan nan nan nan nan nan nan nan nan nan nan nan nan nan nan nan nan nan nan nan nan nan nan nan nan nan nan nan nan nan nan nan nan nan nan nan nan nan nan nan nan nan nan nan nan nan 0 1 1 1 1 1 1 1 1 1 2 2 2 3 5 6 6 8 9 11 11 15 16 16 18 18 17 17 17
nan nan nan nan nan nan nan nan nan nan nan nan nan nan nan nan nan nan nan nan nan nan nan nan nan nan nan nan nan nan nan nan nan nan nan nan nan nan nan nan nan nan nan nan nan nan nan nan nan nan nan nan nan nan 0 0 0 0 1 1 1 1 1 1 1 1 1 1 1 1 2 2 3 3 5 7 10 10 13 16 16 19 19 19 19 19
nan nan nan nan nan nan nan nan nan nan nan nan nan nan nan nan nan nan nan nan nan nan nan nan nan nan nan nan nan nan nan nan nan nan nan nan nan nan nan nan nan nan nan nan nan nan nan nan nan nan nan nan nan nan 0 0 0 0 1 1 1 1 1 1 1 1 2 2 2 2 2 3 3 3 3 4 6 6 7 11 11 16 17 19 19 20
nan nan nan nan nan nan nan nan nan nan nan nan nan nan nan nan nan nan nan nan nan nan nan nan nan nan nan nan nan nan nan nan nan nan nan nan nan nan nan nan nan nan nan nan nan nan nan nan nan nan nan nan nan nan nan nan nan nan nan nan nan 0 0 0 0 1 1 2 2 2 3 3 3 3 3 4 4 4 5 7 7 9 13 15 15 16
nan nan nan nan nan nan nan nan nan nan nan nan nan nan nan nan nan nan nan nan nan nan nan nan nan nan nan nan nan nan nan nan nan nan nan nan nan nan nan nan nan nan nan nan nan nan nan nan nan nan nan nan nan nan nan nan nan nan nan nan nan nan 0 0 0 1 1 2 3 3 3 4 3 3 3 4 4 4 5 6 6 6 8 10 10 15
nan nan nan nan nan nan nan nan nan nan nan nan nan nan nan nan nan nan nan nan nan nan nan nan nan nan nan nan nan nan nan nan nan nan nan nan nan nan nan nan nan nan nan nan nan nan nan nan nan nan nan nan nan nan nan nan nan nan nan nan nan 0 0 1 1 1 1 2 2 2 3 3 4 4 4 4 4 4 4 6 6 6 6 4 4 nan
4 4 7 8 8 8 6 5 2 2 1 1 nan nan nan nan nan nan nan nan nan nan nan nan nan nan nan nan nan nan nan nan nan nan nan nan nan nan nan nan nan nan nan nan nan nan nan nan nan nan nan nan nan nan nan nan nan nan nan nan nan nan 0 1 1 1 1 1 1 1 2 2 3 3 4 4 4 4 4 6 6 6 5 0 0 nan
nan 4 3 nan nan nan nan nan nan nan 0 3 8 8 nan nan nan nan nan nan nan nan nan nan nan nan nan nan nan nan nan nan nan nan nan nan nan nan nan nan nan nan nan nan nan nan nan nan nan nan nan nan nan nan nan nan nan nan nan nan nan nan nan 0 0 0 0 0 0 0 1 1 2 2 3 3 3 3 4 6 6 4 nan nan nan nan
nan nan nan nan nan nan nan nan nan nan nan 1 3 3 nan nan nan nan nan nan nan nan nan nan nan nan nan nan nan nan nan nan nan nan nan nan nan nan nan nan nan nan nan nan nan nan nan nan nan nan nan nan nan nan nan nan nan nan nan nan nan nan nan nan nan nan nan nan nan nan 0 1 1 1 2 3 4 4 4 4 4 3 nan nan nan nan
nan nan nan nan nan nan nan nan nan nan nan nan nan nan nan nan nan nan nan nan nan nan nan nan nan nan nan nan nan nan nan nan nan nan nan nan nan nan nan nan nan nan nan nan nan nan nan nan nan nan nan nan nan nan nan nan nan nan nan nan nan nan nan nan nan nan nan nan nan nan nan nan 0 0 1 3 3 3 5 5 5 4 nan nan nan nan
nan nan nan nan nan nan nan nan nan nan nan nan nan nan nan nan nan nan nan nan nan nan nan nan nan nan nan nan nan nan nan nan nan nan nan nan nan nan nan nan nan nan nan nan nan nan nan nan nan nan nan nan nan nan nan nan nan nan nan nan nan nan nan nan nan nan nan nan nan nan nan nan nan nan nan 1 4 4 6 6 6 7 1 nan nan nan
nan nan nan nan nan nan nan nan nan nan nan nan nan nan nan nan nan nan nan nan nan nan nan nan nan nan nan nan nan nan nan nan nan nan nan nan nan nan nan nan nan nan nan nan nan nan nan nan nan nan nan nan nan nan nan nan nan nan nan nan nan nan nan nan nan nan nan nan nan nan nan nan nan nan nan nan 2 2 4 5 5 7 7 0 0 nan
nan nan nan nan nan nan nan nan nan nan nan nan nan nan nan nan nan nan nan nan nan nan nan nan nan nan nan nan nan nan nan nan nan nan nan nan nan nan nan nan nan nan nan nan nan nan nan nan nan nan nan nan nan nan nan nan nan nan nan nan nan nan nan nan nan nan nan nan nan nan nan nan nan nan nan nan 0 0 1 3 3 4 5 7 7 1
nan nan nan nan nan nan nan nan nan nan nan nan nan nan nan nan nan nan nan nan nan nan nan nan nan nan nan nan nan nan nan nan nan nan nan nan nan nan nan nan nan nan nan nan nan nan nan nan nan nan nan nan nan nan nan nan nan nan nan nan nan nan nan nan nan nan nan nan nan nan nan nan nan nan nan nan nan nan nan 0 0 1 2 3 3 3
nan nan nan nan nan nan nan nan nan nan nan nan nan nan nan nan nan nan nan nan nan nan nan nan nan nan nan nan nan nan nan nan nan nan nan nan nan nan nan nan nan nan nan nan nan nan nan nan nan nan nan nan nan nan nan nan nan nan nan nan nan nan nan nan nan nan nan nan nan nan nan nan nan nan nan nan nan nan nan nan nan nan nan nan nan 0
nan nan nan nan nan nan nan nan nan nan nan nan nan nan nan nan nan nan nan nan nan nan nan nan nan nan nan nan nan nan nan nan nan nan nan nan nan nan nan nan nan nan nan nan nan nan nan nan nan nan nan nan nan nan nan nan nan nan nan nan nan nan nan nan nan nan nan nan nan nan nan nan nan nan nan nan nan nan nan nan nan nan nan nan nan nan
nan nan nan nan nan nan nan nan nan nan nan nan nan nan nan nan nan nan nan nan nan nan nan nan nan nan nan nan nan nan nan nan nan nan nan nan nan nan nan nan nan nan nan nan nan nan nan nan nan nan nan nan nan nan nan nan nan nan nan nan nan nan nan nan nan nan nan nan nan nan nan nan nan nan nan nan nan nan nan nan nan nan nan nan nan nan
nan nan nan nan nan nan nan nan nan nan nan nan nan nan nan nan nan nan nan nan nan nan nan nan nan nan nan nan nan nan nan nan nan nan nan nan nan nan nan nan nan nan nan nan nan nan nan nan nan nan nan nan nan nan nan nan nan nan nan nan nan nan nan nan nan nan nan nan nan nan nan nan nan nan nan nan nan nan nan nan nan nan nan nan nan nan
nan nan nan nan nan nan nan nan nan nan nan nan nan nan nan nan nan nan nan nan nan nan nan nan nan nan nan nan nan nan nan nan nan nan nan nan nan nan nan nan nan nan nan nan nan nan nan nan nan nan nan nan nan nan nan nan nan nan 0 nan nan nan nan nan nan nan nan nan nan nan nan nan nan nan nan nan nan nan nan nan nan nan nan nan nan nan
nan nan nan nan nan nan nan nan nan nan nan nan nan nan nan nan nan nan nan nan nan nan nan nan nan nan nan nan nan nan nan nan nan nan nan nan nan nan nan nan nan nan nan nan nan nan nan nan nan nan nan nan nan nan nan nan nan nan nan nan nan nan nan nan nan nan nan nan nan nan nan nan nan nan nan nan nan nan nan nan nan nan nan nan nan nan
nan nan nan nan nan nan nan nan nan nan nan nan nan nan nan nan nan nan nan nan nan nan nan nan nan nan nan nan nan nan nan nan nan nan nan nan nan nan nan nan nan nan nan nan nan nan nan nan nan nan nan nan nan nan nan nan nan nan nan nan nan nan nan nan nan nan nan nan nan nan nan nan nan nan nan nan nan nan nan nan nan nan nan nan nan nan
nan nan nan nan nan nan nan nan nan nan nan nan nan nan nan nan nan nan nan nan nan nan nan nan nan nan nan nan nan nan nan nan nan nan nan nan nan nan nan nan nan nan nan nan nan nan nan nan nan nan nan nan nan nan nan nan nan nan nan nan nan nan nan nan nan nan nan nan nan nan nan nan nan nan nan nan nan nan nan nan nan nan nan nan nan nan
nan nan nan nan nan nan nan nan nan nan nan nan nan nan nan nan nan nan nan nan nan nan nan nan nan nan nan nan nan nan nan nan nan nan nan nan 0 0 nan nan nan nan nan nan nan nan nan nan nan nan nan nan nan nan nan nan nan nan nan nan nan nan nan nan nan nan nan nan nan nan nan nan nan nan nan nan nan nan nan nan nan nan nan nan nan nan
nan nan nan nan nan nan nan nan nan nan nan nan nan nan nan nan nan nan nan nan nan nan nan nan nan nan nan nan nan nan nan nan nan nan nan nan nan nan nan nan nan nan nan nan nan nan nan nan nan nan nan nan nan nan nan nan nan nan nan nan nan nan nan nan nan nan nan nan nan nan nan nan nan nan nan nan nan nan nan nan nan nan nan nan nan nan
nan nan nan nan nan nan nan nan nan nan nan nan nan nan nan nan nan nan nan nan nan nan nan nan nan nan nan nan nan nan nan nan nan nan nan nan nan nan nan nan nan nan nan nan nan nan nan nan nan nan nan nan nan nan nan nan nan nan nan nan nan nan nan nan nan nan nan nan nan nan nan nan nan nan nan nan nan nan nan nan nan nan nan nan nan nan
nan nan nan nan nan nan nan nan nan nan nan nan nan nan nan nan nan nan nan nan nan nan nan nan nan nan nan nan nan nan nan nan nan nan nan nan nan nan nan nan nan nan nan nan nan nan nan nan nan nan nan nan nan nan nan nan nan nan nan nan nan nan nan nan nan nan nan nan nan nan nan nan nan nan nan nan nan nan nan nan nan nan nan nan nan nan
nan nan nan nan nan nan nan nan nan nan nan nan nan nan nan nan nan nan nan nan nan nan nan nan nan nan nan nan nan nan nan nan nan nan nan nan nan nan nan 0 0 nan nan nan nan nan nan nan nan nan nan nan nan nan nan nan nan nan nan nan nan nan nan nan nan nan nan nan nan nan nan nan nan nan nan nan nan nan nan nan nan nan nan nan nan nan
nan nan nan nan nan nan nan nan nan nan nan nan nan nan nan nan nan nan nan nan nan nan nan nan nan nan nan nan nan nan nan nan nan nan nan nan nan nan nan nan nan nan nan nan nan nan nan 0 0 1 5 0 nan nan nan nan nan nan nan nan nan nan nan nan nan nan nan nan nan nan nan nan nan nan nan nan nan nan nan nan nan nan nan nan nan nan
nan nan nan nan nan nan nan nan nan nan nan nan nan nan nan nan nan nan nan nan nan nan nan nan nan nan nan nan nan nan nan nan nan nan nan nan nan nan nan nan nan nan nan nan nan nan nan nan nan nan 1 14 2 2 nan nan nan nan nan nan nan nan nan nan nan nan nan nan nan nan nan nan nan nan nan nan nan nan nan nan nan nan nan nan nan nan
CIN
nan nan nan nan nan nan nan nan nan nan nan nan nan nan nan nan nan nan nan nan nan nan nan nan nan nan nan nan -4 -4 -0 -0 -0 -0 -0 -0 -0 -0 -0 nan nan nan nan nan nan nan nan nan nan nan nan nan nan nan nan nan nan nan nan nan nan nan -0 -0 -0 -0 -0 -0 -0 -0 -0 -0 -0 -0 -0 -0 -0 -0 -0 -0 -0 -0 -0 -0 -0 -0
nan nan nan nan nan nan nan nan nan nan nan nan nan nan nan nan nan nan nan nan nan nan nan nan nan nan nan nan -9 -9 -0 -0 -0 -0 -0 -0 -0 -0 -0 nan nan nan nan nan nan nan nan nan nan nan nan nan nan nan nan nan nan nan nan nan nan nan nan -0 -0 -0 -0 -0 -0 -0 -0 -0 -0 -0 -0 -0 -0 -0 -0 -0 -0 -0 -0 -0 -0 -0
nan nan nan nan nan nan nan nan nan nan nan nan nan nan nan nan nan nan nan nan nan nan nan nan nan nan nan nan -2 -2 -0 -0 -0 -0 -0 -0 -0 -0 -0 nan nan nan nan nan nan nan nan nan nan nan nan nan nan nan nan nan nan nan nan nan nan nan nan nan nan nan nan -0 -0 -0 -0 nan nan nan -0 -0 -0 -0 -0 -0 -0 -0 -0 -0 -0 -0
nan nan nan nan nan nan nan nan nan nan nan nan nan nan nan nan nan nan nan nan nan nan nan nan nan nan nan nan nan nan -0 -0 -0 -0 -0 -0 -0 -0 nan nan nan nan nan nan nan nan nan nan nan nan nan nan nan nan nan nan nan nan nan nan nan nan nan nan nan nan nan nan nan nan nan nan nan nan nan -0 -0 -0 -0 -0 -0 -0 -0 -0 -0 -0
nan nan nan nan nan nan nan nan nan nan nan nan nan nan nan nan nan nan nan nan nan nan nan nan nan nan nan nan nan nan -4 -0 -0 -0 -0 nan nan nan nan nan nan nan nan nan nan nan nan nan nan nan nan nan nan nan nan nan nan nan nan nan nan nan nan nan nan nan nan nan nan nan nan nan nan nan nan -0 -0 -0 -0 -0 -0 -0 -0 -0 -0 -0
nan nan nan nan nan nan nan nan -0 -0 nan nan nan nan nan nan nan nan nan nan nan nan nan nan nan nan nan nan nan nan nan nan nan nan nan nan nan nan nan nan nan nan nan nan nan nan nan nan nan nan nan nan nan nan nan nan nan nan nan nan nan nan nan nan nan nan nan nan nan nan nan nan nan nan nan nan nan nan -0 -0 -0 -0 -0 -0 -0 -0
nan nan nan nan nan nan nan nan nan nan nan nan nan nan nan nan nan nan nan nan nan nan nan nan nan nan nan nan nan nan nan nan nan nan nan nan nan nan nan nan nan nan nan nan nan nan nan nan nan nan nan nan nan nan nan nan nan nan nan nan nan nan nan nan nan nan nan nan nan nan nan nan nan nan nan nan nan nan nan -0 -0 -0 -0 -0 -0 -0
nan nan nan nan nan nan nan nan nan nan nan nan nan nan nan nan nan nan nan nan nan nan nan nan nan nan nan nan nan nan nan nan nan nan nan nan nan nan nan nan nan nan nan nan nan nan nan nan nan nan nan nan nan nan nan nan nan nan nan nan nan nan nan nan nan nan nan nan nan nan nan nan -0 -0 -0 -0 -0 -0 -0 -0 -0 -0 -0 -0 -0 -0
nan nan nan nan nan nan nan nan nan nan nan nan nan nan nan nan nan nan nan nan nan nan nan nan nan nan nan nan nan nan nan nan nan nan nan nan nan nan nan nan nan nan nan nan nan nan nan nan nan nan nan nan nan nan nan nan nan nan nan nan nan nan nan nan nan nan nan nan nan nan nan nan -0 -0 -0 -0 -0 -0 -0 -0 -0 -0 -0 -0 -0 -0
nan nan nan nan nan nan nan nan nan nan nan nan nan nan nan nan nan nan nan nan nan nan nan nan nan nan nan nan nan nan nan nan nan nan nan nan nan nan nan nan nan nan nan nan nan nan nan nan nan nan nan nan nan nan nan nan nan nan nan nan nan nan nan nan nan nan nan nan nan nan nan nan nan nan nan -0 -0 -0 -0 -0 -0 -0 -0 -0 -0 -0
nan nan nan nan nan nan nan nan nan nan nan nan nan nan nan nan nan nan nan nan nan nan nan nan nan nan nan nan nan nan nan nan nan nan nan nan nan nan nan nan nan nan nan nan nan nan nan nan nan nan nan nan nan nan nan nan nan nan nan nan nan -0 -0 -0 -0 -0 nan nan nan nan nan nan nan nan nan -0 -0 -0 -0 -0 -0 -0 -0 -0 -0 -0
nan nan nan nan nan nan nan nan nan nan nan nan nan nan nan nan nan nan nan nan nan nan nan nan nan nan nan nan nan nan nan nan nan nan nan nan nan nan nan nan nan nan nan nan nan nan nan nan nan nan nan nan nan nan nan nan nan nan nan -0 -0 -0 -0 -0 -0 -0 -0 -0 -0 -0 -0 -0 -0 -0 -0 -0 -0 -0 -0 -0 -0 -0 -0 -0 -0 -0
nan nan nan nan nan nan nan nan nan nan nan nan nan nan nan nan nan nan nan nan nan nan nan nan nan nan nan nan nan nan nan nan nan nan nan nan nan nan nan nan nan nan nan nan nan nan nan nan nan nan nan nan nan nan nan nan nan nan -0 -0 -0 -0 -0 -0 -0 -0 -0 -0 -0 -0 -0 -0 -0 -0 -0 -0 -0 -0 -0 -0 -0 -0 -0 -0 -0 -0
nan nan nan nan nan nan nan nan nan nan nan nan nan nan nan nan nan nan nan nan nan nan nan nan nan nan nan nan nan nan nan nan nan nan nan nan nan nan nan nan nan nan nan nan nan nan nan nan nan nan nan nan nan nan nan nan nan nan -0 -0 -0 -0 -0 -0 -0 -0 -0 -0 -0 -0 -0 -0 -0 -0 -0 -0 -0 -0 -0 -0 -0 -0 -0 -0 -0 -0
nan nan nan nan nan nan nan nan nan nan nan nan nan nan nan nan nan nan nan nan nan nan nan nan nan nan nan nan nan nan nan nan nan nan nan nan nan nan nan nan nan nan nan nan nan nan nan nan nan nan nan nan nan nan nan -13 -13 -0 -0 -0 -0 -0 -0 -0 -0 -0 -0 -0 -0 -0 -0 -0 -0 -0 -0 -0 -0 -0 -0 -0 -0 -0 -0 -0 -0 -0
nan nan nan nan nan nan nan nan nan nan nan nan nan nan nan nan nan nan nan nan nan nan nan nan nan nan nan nan nan nan nan nan nan nan nan nan nan nan nan nan nan nan nan nan nan nan nan nan nan nan nan nan nan nan -0 -4 -4 -0 -0 -0 -0 -0 -0 -0 -0 -0 -0 -0 -0 -0 -0 -0 -0 -0 -0 -0 -0 -0 -0 -0 -0 -0 -0 -0 -0 -0
nan nan nan nan nan nan nan nan nan nan nan nan nan nan nan nan nan nan nan nan nan nan nan nan nan nan nan nan nan nan nan nan nan nan nan nan nan nan nan nan nan nan nan nan nan nan nan nan nan nan nan nan nan nan nan nan nan -0 -0 -0 -0 -0 -0 -0 -0 -0 -0 -0 -0 -0 -0 -0 -0 -0 -0 -0 -0 -0 -0 -0 -0 -0 -0 -0 -0 -0
nan nan nan nan nan nan nan nan nan nan nan nan nan nan nan nan nan nan nan nan nan nan nan nan nan nan nan nan nan nan nan nan nan nan nan nan nan nan nan nan nan nan nan nan nan nan nan nan nan nan nan nan nan nan nan nan nan -0 -0 -0 -0 -0 -0 -0 -0 -0 -0 -0 -0 -0 -0 -0 -0 -0 -0 -0 -0 -0 -0 -0 -0 -0 -0 -0 -0 -0
nan nan nan nan nan nan nan nan nan nan nan nan nan nan nan nan nan nan nan nan nan nan nan nan nan nan nan nan nan nan nan nan nan nan nan nan nan nan nan nan nan nan nan nan nan nan nan nan nan nan nan nan nan nan nan nan nan -0 -0 -0 -0 -0 -0 -0 -0 -0 -0 -0 -0 -0 -0 -0 -0 -0 -0 -0 -0 -0 -0 -0 -0 -0 -0 -0 -0 -0
nan nan nan nan nan nan nan nan nan nan nan nan nan nan nan nan nan nan nan nan nan nan nan nan nan nan nan nan nan nan nan nan nan nan nan nan nan nan nan nan nan nan nan nan nan nan nan nan nan nan nan nan nan nan -0 -0 -0 -0 nan -0 -0 -0 -0 -0 -0 -0 -0 -0 -0 -0 -0 -0 -0 -0 -0 -0 -0 -0 -0 -0 -0 -0 -0 -0 -0 -0
nan nan nan nan nan nan nan nan nan nan nan nan nan nan nan nan nan nan nan nan nan nan nan nan nan nan nan nan nan nan nan nan nan nan nan nan nan nan nan nan nan nan nan nan nan nan nan nan nan nan nan nan nan nan -0 nan nan nan nan -0 -0 -0 -0 -0 -0 -0 -0 -0 -0 -0 -0 -0 -0 -0 -0 -0 -0 -0 -0 -0 -0 -0 -0 -0 -0 -0
nan nan nan nan nan nan nan nan nan nan nan nan nan nan nan nan nan nan nan nan nan nan nan nan nan nan nan nan nan nan nan nan nan nan nan nan nan nan nan nan nan nan nan nan nan nan nan nan nan nan nan nan nan nan nan nan nan nan -0 -0 -0 -0 -0 -0 -0 -0 -0 -0 -0 -0 -0 -0 -0 -0 -0 -0 -0 -0 -0 -0 -0 -0 -0 -0 -0 -0
nan nan nan nan nan nan nan nan nan nan nan nan nan nan nan nan nan nan nan nan nan nan nan nan nan nan nan nan nan nan nan nan nan nan nan nan nan nan nan nan nan nan nan nan nan nan nan nan nan nan nan nan nan nan nan nan nan -0 -0 -0 -0 -0 -0 -0 -0 -0 -0 -0 -0 -0 -0 -0 -0 -0 -0 -0 -0 -0 -0 -0 -0 -0 -0 -0 -0 -0
nan nan nan nan nan nan nan nan nan nan nan nan nan nan nan nan nan nan nan nan nan nan nan nan nan nan nan nan nan nan nan nan nan nan nan nan nan nan nan nan nan nan nan nan nan nan nan nan nan nan nan nan nan nan -0 -0 -0 -0 -0 -0 -0 -0 -0 -0 -0 -0 -0 -0 -0 -0 -0 -0 -0 -0 -0 -0 -0 -0 -0 -0 -0 -0 -0 -0 -0 -0
nan nan nan nan nan nan nan nan nan nan nan nan nan nan nan nan nan nan nan nan nan nan nan nan nan nan nan nan nan nan nan nan nan nan nan nan nan nan nan nan nan nan nan nan nan nan nan nan nan nan nan nan nan nan -0 -0 -0 -0 -0 -0 -0 -0 -0 -0 -0 -0 -0 -0 -0 -0 -0 -0 -0 -0 -0 -0 -0 -0 -0 -0 -0 -0 -0 -0 -0 -0
nan nan nan nan nan nan nan nan nan nan nan nan nan nan nan nan nan nan nan nan nan nan nan nan nan nan nan nan nan nan nan nan nan nan nan nan nan nan nan nan nan nan nan nan nan nan nan nan nan nan nan nan nan nan nan nan nan nan nan nan nan -0 -0 -0 -0 -0 -0 -0 -0 -0 -0 -0 -0 -0 -0 -0 -0 -0 -0 -0 -0 -0 -0 -0 -0 -0
nan nan nan nan nan nan nan nan nan nan nan nan nan nan nan nan nan nan nan nan nan nan nan nan nan nan nan nan nan nan nan nan nan nan nan nan nan nan nan nan nan nan nan nan nan nan nan nan nan nan nan nan nan nan nan nan nan nan nan nan nan nan -0 -0 -0 -0 -0 -0 -0 -0 -0 -0 -0 -0 -0 -0 -0 -0 -0 -0 -0 -0 -0 -0 -0 -0
nan nan nan nan nan nan nan nan nan nan nan nan nan nan nan nan nan nan nan nan nan nan nan nan nan nan nan nan nan nan nan nan nan nan nan nan nan nan nan nan nan nan nan nan nan nan nan nan nan nan nan nan nan nan nan nan nan nan nan nan nan -0 -0 -0 -0 -0 -0 -0 -0 -0 -0 -0 -0 -0 -0 -0 -0 -0 -0 -0 -0 -0 -0 -4 -4 nan
-0 -0 -0 -0 -0 -0 -0 -0 -0 -0 -0 -0 nan nan nan nan nan nan nan nan nan nan nan nan nan nan nan nan nan nan nan nan nan nan nan nan nan nan nan nan nan nan nan nan nan nan nan nan nan nan nan nan nan nan nan nan nan nan nan nan nan nan -0 -0 -0 -0 -0 -0 -0 -0 -0 -0 -0 -0 -0 -0 -0 -0 -0 -0 -0 -0 -0 -18 -18 nan
nan -1 -1 nan nan nan nan nan nan nan -0 -0 -0 -0 nan nan nan nan nan nan nan nan nan nan nan nan nan nan nan nan nan nan nan nan nan nan nan nan nan nan nan nan nan nan nan nan nan nan nan nan nan nan nan nan nan nan nan nan nan nan nan nan nan -0 -0 -0 -0 -0 -0 -0 -0 -0 -0 -0 -0 -0 -0 -0 -0 -0 -0 -0 nan nan nan nan
nan nan nan nan nan nan nan nan nan nan nan -0 -0 -0 nan nan nan nan nan nan nan nan nan nan nan nan nan nan nan nan nan nan nan nan nan nan nan nan nan nan nan nan nan nan nan nan nan nan nan nan nan nan nan nan nan nan nan nan nan nan nan nan nan nan nan nan nan nan nan nan -0 -0 -0 -0 -0 -0 -0 -0 -0 -0 -0 -0 nan nan nan nan
nan nan nan nan nan nan nan nan nan nan nan nan nan nan nan nan nan nan nan nan nan nan nan nan nan nan nan nan nan nan nan nan nan nan nan nan nan nan nan nan nan nan nan nan nan nan nan nan nan nan nan nan nan nan nan nan nan nan nan nan nan nan nan nan nan nan nan nan nan nan nan nan -0 -0 -0 -0 -0 -0 -0 -0 -0 -0 nan nan nan nan
nan nan nan nan nan nan nan nan nan nan nan nan nan nan nan nan nan nan nan nan nan nan nan nan nan nan nan nan nan nan nan nan nan nan nan nan nan nan nan nan nan nan nan nan nan nan nan nan nan nan nan nan nan nan nan nan nan nan nan nan nan nan nan nan nan nan nan nan nan nan nan nan nan nan nan -0 -0 -0 -0 -0 -0 -0 -10 nan nan nan
nan nan nan nan nan nan nan nan nan nan nan nan nan nan nan nan nan nan nan nan nan nan nan nan nan nan nan nan nan nan nan nan nan nan nan nan nan nan nan nan nan nan nan nan nan nan nan nan nan nan nan nan nan nan nan nan nan nan nan nan nan nan nan nan nan nan nan nan nan nan nan nan nan nan nan nan -0 -0 -0 -0 -0 -0 -0 -21 -21 nan
nan nan nan nan nan nan nan nan nan nan nan nan nan nan nan nan nan nan nan nan nan nan nan nan nan nan nan nan nan nan nan nan nan nan nan nan nan nan nan nan nan nan nan nan nan nan nan nan nan nan nan nan nan nan nan nan nan nan nan nan nan nan nan nan nan nan nan nan nan nan nan nan nan nan nan nan -0 -0 -0 -0 -0 -0 -0 -0 -0 -14
nan nan nan nan nan nan nan nan nan nan nan nan nan nan nan nan nan nan nan nan nan nan nan nan nan nan nan nan nan nan nan nan nan nan nan nan nan nan nan nan nan nan nan nan nan nan nan nan nan nan nan nan nan nan nan nan nan nan nan nan nan nan nan nan nan nan nan nan nan nan nan nan nan nan nan nan nan nan nan -0 -0 -0 -0 -0 -0 -0
nan nan nan nan nan nan nan nan nan nan nan nan nan nan nan nan nan nan nan nan nan nan nan nan nan nan nan nan nan nan nan nan nan nan nan nan nan nan nan nan nan nan nan nan nan nan nan nan nan nan nan nan nan nan nan nan nan nan nan nan nan nan nan nan nan nan nan nan nan nan nan nan nan nan nan nan nan nan nan nan nan nan nan nan nan -0
nan nan nan nan nan nan nan nan nan nan nan nan nan nan nan nan nan nan nan nan nan nan nan nan nan nan nan nan nan nan nan nan nan nan nan nan nan nan nan nan nan nan nan nan nan nan nan nan nan nan nan nan nan nan nan nan nan nan nan nan nan nan nan nan nan nan nan nan nan nan nan nan nan nan nan nan nan nan nan nan nan nan nan nan nan nan
nan nan nan nan nan nan nan nan nan nan nan nan nan nan nan nan nan nan nan nan nan nan nan nan nan nan nan nan nan nan nan nan nan nan nan nan nan nan nan nan nan nan nan nan nan nan nan nan nan nan nan nan nan nan nan nan nan nan nan nan nan nan nan nan nan nan nan nan nan nan nan nan nan nan nan nan nan nan nan nan nan nan nan nan nan nan
nan nan nan nan nan nan nan nan nan nan nan nan nan nan nan nan nan nan nan nan nan nan nan nan nan nan nan nan nan nan nan nan nan nan nan nan nan nan nan nan nan nan nan nan nan nan nan nan nan nan nan nan nan nan nan nan nan nan nan nan nan nan nan nan nan nan nan nan nan nan nan nan nan nan nan nan nan nan nan nan nan nan nan nan nan nan
nan nan nan nan nan nan nan nan nan nan nan nan nan nan nan nan nan nan nan nan nan nan nan nan nan nan nan nan nan nan nan nan nan nan nan nan nan nan nan nan nan nan nan nan nan nan nan nan nan nan nan nan nan nan nan nan nan nan -0 nan nan nan nan nan nan nan nan nan nan nan nan nan nan nan nan nan nan nan nan nan nan nan nan nan nan nan
nan nan nan nan nan nan nan nan nan nan nan nan nan nan nan nan nan nan nan nan nan nan nan nan nan nan nan nan nan nan nan nan nan nan nan nan nan nan nan nan nan nan nan nan nan nan nan nan nan nan nan nan nan nan nan nan nan nan nan nan nan nan nan nan nan nan nan nan nan nan nan nan nan nan nan nan nan nan nan nan nan nan nan nan nan nan
nan nan nan nan nan nan nan nan nan nan nan nan nan nan nan nan nan nan nan nan nan nan nan nan nan nan nan nan nan nan nan nan nan nan nan nan nan nan nan nan nan nan nan nan nan nan nan nan nan nan nan nan nan nan nan nan nan nan nan nan nan nan nan nan nan nan nan nan nan nan nan nan nan nan nan nan nan nan nan nan nan nan nan nan nan nan
nan nan nan nan nan nan nan nan nan nan nan nan nan nan nan nan nan nan nan nan nan nan nan nan nan nan nan nan nan nan nan nan nan nan nan nan nan nan nan nan nan nan nan nan nan nan nan nan nan nan nan nan nan nan nan nan nan nan nan nan nan nan nan nan nan nan nan nan nan nan nan nan nan nan nan nan nan nan nan nan nan nan nan nan nan nan
nan nan nan nan nan nan nan nan nan nan nan nan nan nan nan nan nan nan nan nan nan nan nan nan nan nan nan nan nan nan nan nan nan nan nan nan -0 -0 nan nan nan nan nan nan nan nan nan nan nan nan nan nan nan nan nan nan nan nan nan nan nan nan nan nan nan nan nan nan nan nan nan nan nan nan nan nan nan nan nan nan nan nan nan nan nan nan
nan nan nan nan nan nan nan nan nan nan nan nan nan nan nan nan nan nan nan nan nan nan nan nan nan nan nan nan nan nan nan nan nan nan nan nan nan nan nan nan nan nan nan nan nan nan nan nan nan nan nan nan nan nan nan nan nan nan nan nan nan nan nan nan nan nan nan nan nan nan nan nan nan nan nan nan nan nan nan nan nan nan nan nan nan nan
nan nan nan nan nan nan nan nan nan nan nan nan nan nan nan nan nan nan nan nan nan nan nan nan nan nan nan nan nan nan nan nan nan nan nan nan nan nan nan nan nan nan nan nan nan nan nan nan nan nan nan nan nan nan nan nan nan nan nan nan nan nan nan nan nan nan nan nan nan nan nan nan nan nan nan nan nan nan nan nan nan nan nan nan nan nan
nan nan nan nan nan nan nan nan nan nan nan nan nan nan nan nan nan nan nan nan nan nan nan nan nan nan nan nan nan nan nan nan nan nan nan nan nan nan nan nan nan nan nan nan nan nan nan nan nan nan nan nan nan nan nan nan nan nan nan nan nan nan nan nan nan nan nan nan nan nan nan nan nan nan nan nan nan nan nan nan nan nan nan nan nan nan
nan nan nan nan nan nan nan nan nan nan nan nan nan nan nan nan nan nan nan nan nan nan nan nan nan nan nan nan nan nan nan nan nan nan nan nan nan nan nan -0 -0 nan nan nan nan nan nan nan nan nan nan nan nan nan nan nan nan nan nan nan nan nan nan nan nan nan nan nan nan nan nan nan nan nan nan nan nan nan nan nan nan nan nan nan nan nan
nan nan nan nan nan nan nan nan nan nan nan nan nan nan nan nan nan nan nan nan nan nan nan nan nan nan nan nan nan nan nan nan nan nan nan nan nan nan nan nan nan nan nan nan nan nan nan -2 -2 -1 -0 -2 nan nan nan nan nan nan nan nan nan nan nan nan nan nan nan nan nan nan nan nan nan nan nan nan nan nan nan nan nan nan nan nan nan nan
nan nan nan nan nan nan nan nan nan nan nan nan nan nan nan nan nan nan nan nan nan nan nan nan nan nan nan nan nan nan nan nan nan nan nan nan nan nan nan nan nan nan nan nan nan nan nan nan nan nan -4 -0 -0 -0 nan nan nan nan nan nan nan nan nan nan nan nan nan nan nan nan nan nan nan nan nan nan nan nan nan nan nan nan nan nan nan nan
Wind_Speed
2 3 3 4 4 3 2 3 3 3 2 1 0 1 2 2 2 3 3 3 2 2 1 2 2 3 4 3 4 5 6 6 6 7 7 7 7 7 7 7 7 7 7 7 6 6 6 6 6 7 7 7 7 7 7 7 8 8 8 8 8 7 7 7 7 7 6 6 6 6 6 6 5 5 5 5 5 5 5 5 5 5 6 6 7 7
2 2 2 3 3 3 2 2 3 2 2 1 1 1 2 2 2 2 3 2 2 2 1 2 2 3 3 3 2 5 6 6 6 7 7 6 6 6 6 6 5 5 5 5 5 5 5 5 5 6 6 6 6 6 6 7 7 7 7 7 8 8 7 7 7 7 7 6 6 6 6 6 6 6 5 5 5 5 5 5 5 6 6 6 7 7
3 3 2 2 2 2 2 2 2 1 2 1 1 2 2 2 2 2 2 2 2 2 2 2 2 2 3 4 2 4 6 6 6 6 6 6 5 5 5 4 4 4 4 4 4 5 5 5 5 5 5 5 5 5 6 6 6 6 7 7 7 7 7 7 7 6 6 6 6 6 6 6 6 5 5 5 5 5 5 6 6 6 6 6 7 7
3 3 3 2 2 2 2 2 1 1 2 2 2 2 2 2 1 1 1 1 1 1 2 3 3 3 3 4 3 2 5 6 6 6 5 5 4 4 4 4 4 4 4 4 4 5 5 5 5 5 5 5 5 5 5 5 5 6 6 6 6 6 7 6 6 6 6 5 5 5 5 5 5 5 5 5 6 6 6 6 6 6 6 7 7 7
3 3 3 2 1 1 1 1 1 1 2 2 2 2 2 2 1 1 1 1 1 1 2 3 3 4 3 3 3 2 4 5 5 5 5 4 4 3 3 3 3 4 4 4 5 5 5 5 5 5 5 5 5 5 5 5 5 5 6 6 6 6 6 6 6 6 6 5 5 5 5 5 5 5 5 6 6 6 6 6 6 7 7 7 7 8
3 2 2 2 1 1 1 1 1 1 1 2 2 2 2 2 2 2 2 2 2 2 2 2 3 3 3 4 4 3 3 5 5 5 4 4 4 3 3 3 4 4 5 5 5 5 5 5 5 5 5 5 5 5 5 5 5 5 6 6 6 6 6 6 6 6 6 5 5 5 5 5 5 5 5 5 6 6 6 7 7 7 7 8 8 8
2 1 1 1 1 1 1 1 1 1 1 1 1 2 2 2 2 2 2 2 2 2 2 2 2 3 3 5 5 5 4 5 5 5 5 5 5 4 4 4 4 5 5 5 5 5 5 5 5 5 5 5 5 5 5 5 5 5 5 5 5 5 5 5 5 5 5 5 5 5 5 5 5 5 5 5 6 6 6 7 7 8 8 8 8 8
3 2 1 1 1 1 1 1 1 1 1 1 1 1 2 2 2 2 2 2 2 2 2 2 2 3 3 4 5 5 4 4 5 5 5 6 6 5 5 5 5 5 5 4 4 5 5 5 5 5 5 5 4 4 5 5 5 5 5 5 5 5 5 5 5 5 5 5 5 5 5 5 5 5 5 5 5 6 6 7 7 8 8 8 8 8
4 3 1 1 1 1 1 0 1 1 1 1 2 2 1 1 1 2 2 2 2 2 2 2 2 2 3 4 4 4 4 3 3 3 4 3 3 4 5 5 5 5 4 4 4 5 5 5 5 5 5 4 4 4 4 5 5 5 5 5 5 5 5 5 5 5 5 5 5 5 5 5 5 5 5 5 5 6 6 6 7 7 7 7 7 8
3 3 2 1 1 1 1 1 0 1 2 2 2 2 2 2 1 1 1 1 2 2 2 2 1 1 3 3 4 4 4 3 3 4 5 5 4 4 5 5 5 4 4 4 4 5 5 5 5 5 4 4 4 4 4 4 4 4 5 5 5 5 5 5 5 5 5 5 5 5 5 5 5 5 5 6 6 6 6 6 6 7 7 7 7 7
3 2 2 1 1 1 1 1 1 1 2 2 2 2 2 2 2 2 2 0 1 2 2 2 1 1 1 3 3 4 3 3 4 5 6 6 7 6 6 6 6 5 5 5 5 5 5 5 5 4 4 3 3 3 3 3 4 4 4 5 5 5 5 5 4 4 4 4 4 5 5 5 5 5 5 5 5 5 6 6 6 6 6 6 7 7
2 2 2 2 1 1 1 1 1 1 2 2 2 1 1 1 1 2 3 2 1 1 1 2 1 1 1 1 2 3 3 2 2 3 4 5 5 6 5 5 6 6 6 5 5 6 6 5 5 5 4 4 3 3 2 2 3 4 4 5 5 5 5 5 5 4 4 4 4 4 4 4 5 5 5 5 5 5 5 5 5 5 5 6 6 7
2 2 2 2 2 1 1 1 1 1 1 1 2 2 2 0 0 2 2 2 1 0 1 1 1 1 1 1 1 1 2 1 1 2 2 3 3 4 3 3 3 4 4 4 4 4 5 6 6 6 5 5 4 4 3 3 4 4 4 5 5 5 5 5 5 5 5 5 5 5 5 4 4 4 4 4 4 4 5 5 5 5 5 5 6 7
2 2 2 2 2 1 1 2 2 2 1 1 2 2 2 1 1 1 2 1 0 1 1 1 1 1 2 1 1 1 1 1 1 2 2 2 2 2 2 2 2 2 2 2 3 3 3 4 4 5 5 5 5 4 4 4 5 5 5 5 5 5 5 5 5 5 5 5 5 5 5 5 4 4 4 4 4 4 4 4 4 4 4 5 6 6
3 3 3 3 2 2 1 2 2 2 2 1 1 1 1 1 1 2 2 1 1 1 2 2 2 2 2 2 1 1 1 1 2 2 2 2 2 1 1 1 2 2 2 2 2 2 3 2 2 3 4 4 4 5 5 5 5 5 5 4 4 5 5 5 5 5 5 5 5 5 5 5 5 4 4 4 4 4 4 4 5 5 5 5 5 6
3 3 4 4 3 2 1 2 2 2 1 1 1 1 2 2 1 2 3 2 1 1 2 2 2 2 3 2 1 1 1 2 2 2 2 2 2 1 1 1 2 2 2 1 2 2 2 2 2 2 3 4 6 6 6 5 4 4 4 4 4 5 5 5 5 5 5 5 5 5 5 5 5 5 5 4 4 4 4 4 5 5 5 5 5 6
2 3 3 3 3 2 1 1 1 2 2 1 1 1 2 2 2 2 3 2 2 1 2 2 1 0 2 2 2 1 1 2 2 2 1 2 2 2 1 1 1 2 2 2 2 2 2 2 2 2 3 5 6 6 6 5 4 4 4 4 4 5 5 5 5 5 5 5 5 5 5 5 6 6 5 5 5 5 5 5 5 5 5 5 5 6
2 2 3 3 3 2 1 1 1 1 2 2 1 1 1 1 1 2 2 2 2 2 1 2 2 1 1 1 2 1 1 2 3 2 1 2 2 2 1 1 1 1 2 2 2 2 2 2 2 3 4 6 7 6 5 4 4 3 4 4 4 4 5 4 4 4 4 4 4 5 5 5 5 6 6 6 6 5 5 5 5 5 6 6 6 6
2 2 3 3 3 2 2 2 2 2 3 3 3 2 2 1 1 2 2 2 2 2 2 2 2 2 2 2 2 2 1 2 3 2 1 2 3 3 2 1 1 1 1 2 2 2 2 2 3 5 7 7 7 6 5 4 3 3 3 4 4 4 4 4 4 4 4 4 4 4 4 4 5 5 5 6 6 6 6 6 6 6 6 6 6 7
3 2 3 3 3 3 2 2 3 3 4 4 4 4 3 2 1 1 1 1 1 1 2 2 2 2 2 3 3 2 0 2 3 2 1 2 3 3 2 2 2 2 2 3 3 2 1 2 3 5 7 7 7 6 4 3 3 3 3 3 3 4 4 4 4 4 4 4 4 3 3 3 4 4 5 5 6 6 6 6 6 6 6 6 7 7
3 3 3 3 4 4 3 3 3 4 4 4 4 4 3 2 2 1 1 1 1 1 2 2 2 2 3 3 3 2 1 2 3 2 1 1 2 3 2 1 2 1 2 3 3 2 1 2 2 3 6 7 6 5 3 3 3 3 3 3 3 3 3 3 4 4 4 4 4 4 4 4 4 4 4 4 5 5 6 6 6 6 7 6 6 6
4 4 4 3 4 4 4 4 4 4 5 5 5 4 3 3 3 2 2 2 2 2 2 2 2 2 2 2 2 1 1 2 3 3 2 1 2 3 2 1 1 1 2 3 2 2 2 2 2 3 6 7 6 4 2 2 2 2 2 2 2 2 2 3 3 3 4 4 4 4 5 5 5 5 5 5 5 5 6 6 6 6 6 6 6 6
4 4 4 3 3 3 3 4 4 4 4 4 4 4 4 4 4 4 4 3 3 3 2 2 1 1 0 1 1 1 0 1 2 3 3 1 2 3 2 1 1 1 2 3 2 2 3 2 3 3 6 7 5 3 2 2 2 3 3 2 2 2 2 3 3 3 3 4 4 4 4 4 4 5 5 5 5 6 6 6 6 6 6 6 6 6
4 4 4 3 3 2 3 3 3 3 2 2 2 2 3 3 3 3 3 3 3 2 2 2 2 2 2 2 1 1 1 0 1 2 3 1 2 2 1 1 1 1 2 2 2 2 3 3 3 3 4 6 5 4 4 4 4 4 4 4 4 3 3 3 3 3 3 4 4 4 4 4 4 4 5 5 5 6 6 6 7 6 6 6 6 6
4 4 4 4 4 4 4 5 5 4 3 3 3 3 4 4 4 4 3 3 3 3 3 3 3 2 3 2 2 2 1 1 1 2 3 2 1 2 2 0 0 1 2 2 2 2 2 2 2 3 3 5 6 7 6 6 6 6 6 5 5 4 4 4 4 4 4 4 4 4 4 4 4 4 4 5 5 6 6 6 7 7 7 7 7 7
6 6 6 7 8 9 10 9 9 8 8 6 5 4 4 5 5 4 3 3 2 3 3 3 2 1 2 2 2 2 2 1 0 1 2 2 1 1 2 0 0 1 2 2 2 2 2 2 2 3 3 4 6 8 8 8 8 7 7 6 6 5 4 4 4 4 4 4 4 4 4 4 4 4 4 5 5 5 6 6 7 7 7 7 7 6
10 11 11 12 12 12 12 12 12 11 11 10 8 7 5 4 4 3 2 1 1 2 3 2 0 1 2 2 2 2 2 1 0 1 2 2 1 1 2 0 0 1 2 2 2 2 2 2 2 3 3 3 4 6 9 9 9 9 8 7 6 5 5 4 4 4 5 5 5 5 5 5 5 5 5 5 5 5 5 6 6 6 7 6 5 4
12 12 12 12 11 11 11 11 11 11 11 11 11 10 7 5 4 3 2 2 2 3 3 2 1 1 1 2 2 2 2 1 1 1 2 2 1 1 2 1 0 0 1 2 2 2 2 2 2 2 3 3 3 4 7 8 9 9 9 8 7 6 6 5 5 5 5 6 6 6 6 6 6 6 6 6 5 5 6 6 6 6 5 4 2 2
9 9 9 8 8 8 7 6 6 7 8 8 9 9 6 4 4 3 3 3 3 3 2 2 2 2 2 1 2 2 2 2 2 2 2 2 1 1 1 0 0 0 0 1 2 2 2 2 2 2 2 3 3 3 4 6 7 7 8 8 8 8 7 7 7 7 7 6 6 7 7 7 7 6 6 6 6 6 6 6 6 5 3 2 2 1
5 6 6 6 6 6 5 4 3 3 3 4 5 6 5 4 3 4 3 4 4 3 3 2 2 2 2 0 1 2 2 2 2 2 3 2 1 1 0 0 1 1 1 1 2 2 2 2 2 1 2 3 3 2 2 3 3 4 4 6 7 8 8 8 8 8 7 7 7 7 7 7 7 7 7 6 6 6 6 6 5 3 2 2 2 1
3 4 4 4 5 4 4 4 4 4 3 3 4 4 4 3 3 4 4 4 4 4 3 3 3 3 2 2 1 0 2 2 1 2 3 3 1 1 1 1 0 0 0 2 2 1 1 2 2 2 1 2 2 2 2 1 2 2 2 3 4 6 8 8 8 8 8 8 8 7 7 7 7 7 7 7 6 6 6 6 5 2 2 2 1 0
2 3 2 2 3 3 3 3 3 3 3 3 3 2 2 3 3 4 4 4 4 4 4 3 3 3 3 2 2 2 2 2 2 2 3 3 1 1 1 1 1 0 0 1 2 2 1 2 2 2 2 2 2 2 2 1 1 1 2 2 3 4 6 7 7 7 7 7 8 8 8 8 8 8 7 7 7 6 6 6 5 3 1 1 1 1
2 2 2 2 2 2 3 3 2 2 2 2 1 1 1 1 2 3 4 4 4 4 4 4 3 3 2 2 2 2 2 3 3 3 4 3 2 1 1 1 1 1 0 1 1 2 2 1 2 2 2 2 2 2 2 1 1 1 1 2 2 3 5 5 5 5 5 6 6 7 8 8 8 8 8 8 7 7 7 7 6 5 2 1 2 2
2 2 2 2 2 2 2 2 2 2 1 1 1 0 0 0 1 2 3 3 3 4 4 4 4 3 3 2 1 2 3 3 3 3 4 3 2 2 1 2 2 1 1 1 1 1 1 1 1 1 2 2 2 2 2 2 1 1 0 1 1 2 3 3 3 3 4 4 4 4 5 6 7 7 8 8 8 7 7 7 7 7 5 2 1 2
2 2 2 2 2 2 2 2 2 2 1 1 1 1 1 1 1 2 2 3 3 3 3 4 4 4 4 3 2 2 3 3 3 3 4 3 3 2 2 2 2 2 2 1 1 1 0 1 1 1 1 2 2 2 2 2 2 1 1 1 1 2 2 2 2 2 3 3 3 3 3 3 4 5 5 6 7 8 8 8 8 7 7 6 4 2
2 1 2 2 1 1 1 1 1 1 2 2 2 1 1 2 2 2 2 2 3 3 3 3 3 3 4 4 4 3 3 3 3 3 4 3 3 3 2 2 2 2 2 2 1 1 1 1 1 1 1 1 2 2 2 2 2 2 2 1 2 2 2 1 0 1 1 2 2 3 3 3 3 3 4 6 7 8 8 8 8 8 7 7 7 5
1 1 1 1 0 0 0 1 1 1 2 2 2 2 1 2 2 2 1 1 2 2 3 2 2 2 3 3 3 3 3 2 2 2 3 3 3 3 2 2 2 3 3 3 2 2 1 0 1 1 1 1 1 2 2 2 2 2 2 2 2 2 2 1 0 0 0 1 2 3 3 2 2 3 4 5 6 7 7 8 8 7 7 7 7 7
1 0 1 1 0 1 1 1 1 2 2 2 2 1 1 1 1 1 1 1 1 1 1 2 1 2 2 2 2 2 2 2 2 2 2 3 3 3 3 2 2 3 3 3 3 3 2 1 0 1 1 2 2 3 2 2 2 2 3 2 2 2 2 1 1 1 1 1 2 3 3 2 2 2 3 4 4 4 4 5 5 6 6 6 7 7
1 1 1 1 1 2 2 2 2 2 2 1 1 0 0 1 1 2 2 1 1 1 1 1 1 0 1 1 1 1 1 2 3 3 3 3 3 3 3 2 2 2 2 2 3 3 3 2 2 1 1 2 2 2 2 1 1 2 3 3 2 2 2 1 1 1 1 1 2 3 3 2 2 2 2 2 2 2 2 3 3 4 4 3 4 6
2 2 2 2 2 2 2 2 2 1 1 0 0 1 1 2 2 2 2 2 2 2 1 1 1 1 1 1 1 1 1 1 2 3 3 3 3 3 3 3 3 3 3 2 2 2 3 3 2 2 2 1 2 2 2 1 1 2 3 2 2 2 2 2 1 1 0 1 1 2 2 2 2 2 2 2 1 1 2 2 2 3 2 1 1 2
2 2 2 2 2 2 2 1 1 0 0 1 1 1 1 1 2 2 2 2 2 2 2 2 1 1 2 1 1 1 1 1 2 3 3 3 3 3 3 3 3 3 3 2 2 2 3 3 2 2 2 2 2 3 3 2 3 4 4 3 2 3 4 3 2 1 0 1 1 2 2 2 2 2 2 2 2 3 3 2 3 3 2 1 1 1
3 2 2 2 1 1 1 0 0 1 1 2 1 1 1 1 1 2 2 1 1 1 2 2 1 1 2 3 2 2 1 2 3 3 4 4 4 4 4 4 3 3 3 3 2 2 2 3 2 2 2 2 2 3 3 3 3 3 3 2 3 4 5 4 2 1 0 1 2 2 2 2 2 2 3 3 3 3 3 3 3 4 3 2 2 2
3 2 2 1 1 0 0 0 1 1 2 2 1 1 0 1 1 1 2 1 1 0 1 1 2 1 0 2 3 3 3 2 2 2 3 4 4 5 4 4 4 4 4 3 2 2 2 3 3 2 2 2 2 3 4 3 3 2 2 2 2 2 2 3 2 1 1 2 2 2 2 2 3 3 3 3 3 3 3 4 5 6 5 3 3 3
2 1 1 0 0 0 1 1 1 1 1 1 1 0 0 0 1 1 2 1 1 1 1 1 2 2 1 1 2 3 3 3 2 2 2 4 5 5 4 4 4 4 4 3 3 2 2 2 2 2 2 2 2 3 4 4 3 2 2 2 2 2 2 2 2 2 2 3 3 3 2 2 2 2 2 2 2 2 2 2 3 3 4 3 3 3
1 1 0 1 1 1 1 1 1 1 1 1 0 0 0 0 1 1 2 2 1 1 1 1 2 1 0 1 2 2 3 3 3 2 2 2 4 5 5 4 4 4 4 4 4 3 2 2 2 2 2 2 3 4 5 4 4 3 3 3 3 4 4 3 3 3 3 4 4 4 3 2 1 2 2 2 2 2 2 3 3 4 4 3 3 3
1 1 1 1 1 1 1 1 1 1 1 0 0 0 0 1 1 1 2 2 2 1 1 1 2 1 1 1 1 1 2 2 3 3 2 2 1 1 3 4 4 4 4 3 3 3 3 3 3 2 2 2 3 4 5 5 4 4 3 3 3 3 3 3 3 3 3 3 4 4 3 1 1 1 2 3 3 3 3 3 4 4 4 4 4 4
2 1 1 1 1 1 1 1 1 1 1 0 1 1 0 1 1 1 1 2 2 2 2 1 1 2 2 2 1 1 0 1 2 2 3 2 2 1 2 3 4 4 4 4 3 3 3 3 3 3 3 3 4 4 5 4 4 4 4 3 2 2 3 3 3 3 3 3 3 3 1 1 1 2 3 3 3 3 3 3 4 4 4 4 4 4
3 2 2 2 1 1 1 1 1 1 1 1 1 1 1 1 2 2 1 1 2 2 2 2 2 2 2 2 2 2 2 1 1 2 2 2 2 1 1 2 3 3 4 4 4 4 4 4 4 4 4 4 4 4 4 4 4 4 3 3 2 3 4 4 3 3 2 3 3 2 1 1 2 3 3 3 3 3 3 3 3 4 4 4 4 4
3 3 3 2 2 2 2 2 2 2 2 2 1 1 1 1 2 2 2 2 2 2 2 2 2 2 2 2 2 2 2 2 2 2 2 1 1 1 1 2 2 2 2 3 3 3 3 4 5 6 6 6 5 6 5 4 4 3 3 3 3 3 4 4 4 3 3 3 3 3 2 2 3 3 3 3 4 4 4 4 3 3 3 3 3 3
2 3 3 3 2 2 2 2 2 2 2 2 2 1 1 1 0 1 1 2 2 2 2 3 3 3 3 3 2 2 2 2 1 1 2 1 1 1 1 2 2 2 2 1 2 2 2 3 5 7 9 9 9 8 6 5 4 3 3 3 3 3 3 4 4 3 3 3 3 3 2 2 2 2 2 3 4 5 5 4 4 3 3 2 2 2
3 3 3 3 3 3 3 3 3 3 3 3 2 2 1 0 0 0 1 1 1 2 2 3 3 3 4 4 3 3 3 3 2 2 2 1 1 1 2 2 2 2 2 1 1 2 2 2 2 4 6 10 12 11 7 6 4 3 4 3 3 2 3 3 4 4 4 3 3 2 2 2 2 2 2 2 4 5 6 5 4 3 2 2 1 2
Wind_Direction
122 129 132 134 134 137 151 153 149 146 152 156 113 48 35 34 29 23 22 31 37 38 29 9 358 357 4 44 87 107 113 113 112 109 104 98 91 85 79 74 68 62 56 50 43 37 31 24 18 13 8 3 359 357 353 351 348 346 344 344 343 343 344 346 350 354 359 5 11 14 17 19 20 18 13 5 357 352 349 348 347 347 346 345 341 337
123 124 127 131 131 134 146 155 151 146 152 158 129 60 46 36 28 20 18 24 26 25 22 6 5 4 0 5 71 112 117 117 115 112 106 100 94 87 79 72 65 57 49 41 33 25 18 11 5 359 355 351 348 345 344 342 341 339 338 336 336 335 336 338 342 346 351 358 1 3 4 5 5 3 358 352 348 346 346 348 348 347 345 341 338 333
137 134 134 128 127 132 142 156 150 135 135 134 100 61 55 53 43 32 28 26 17 13 12 6 8 9 2 355 49 112 117 116 114 110 106 100 94 85 76 67 57 46 35 26 17 8 0 355 350 345 341 338 336 334 334 334 334 333 332 330 329 328 328 329 332 336 341 346 349 351 352 352 351 349 345 342 341 342 344 346 345 344 341 337 333 330
145 144 144 128 120 122 129 140 131 102 91 90 77 64 63 65 55 38 28 42 29 15 6 8 11 11 3 353 9 81 113 112 110 106 102 96 88 78 67 54 40 27 15 6 358 352 346 344 341 336 333 330 328 327 329 330 330 330 329 326 324 323 321 321 322 324 327 331 334 336 337 337 336 335 335 335 335 336 337 338 338 336 334 331 328 325
147 145 141 127 116 110 96 97 100 94 79 73 66 60 59 60 50 31 19 41 48 36 12 11 13 12 7 353 355 31 100 106 104 99 93 86 77 65 50 33 18 6 356 350 346 343 342 341 339 336 333 331 329 330 333 334 333 332 330 326 323 320 317 316 315 315 316 318 319 321 323 323 324 326 327 329 330 330 330 330 329 328 327 326 324 322
144 135 127 119 116 111 92 79 93 102 86 66 56 51 50 47 42 37 36 49 52 41 20 14 13 11 9 356 357 15 69 92 93 86 78 69 58 43 25 9 357 348 344 341 340 341 343 344 342 341 339 338 339 341 344 345 342 339 335 331 327 323 319 316 314 312 311 311 312 313 314 315 316 318 321 323 324 324 324 325 324 323 322 321 320 319
133 112 99 95 93 94 92 71 78 101 109 88 59 43 39 39 39 39 40 41 38 29 17 10 8 10 10 3 4 13 41 63 67 63 57 49 40 28 13 359 348 341 337 336 339 343 347 348 346 345 345 348 352 356 358 355 351 346 341 337 333 329 325 320 317 315 313 312 311 311 310 311 312 313 314 316 318 320 321 321 320 319 318 318 317 316
134 116 95 99 97 87 76 61 41 48 96 113 99 70 44 37 33 31 29 25 22 20 19 12 6 4 4 2 4 11 28 47 52 49 45 40 33 24 13 1 350 341 335 337 342 348 351 349 348 348 351 357 4 8 9 4 359 354 349 345 341 338 333 328 324 321 319 317 315 314 312 311 310 310 310 311 313 315 317 318 317 316 315 315 314 313
139 137 129 126 123 120 112 79 21 19 48 93 112 118 110 83 46 25 22 19 15 16 25 30 18 1 348 351 356 4 16 40 55 57 49 43 35 27 19 11 358 345 335 341 348 353 353 350 348 349 355 4 13 19 18 12 6 0 355 352 349 346 341 336 332 328 325 322 319 316 313 311 310 308 307 308 310 311 313 313 313 312 312 313 313 311
130 131 127 116 112 121 129 128 43 9 32 66 88 107 122 121 109 82 52 17 1 2 21 42 43 10 339 343 350 359 7 22 44 52 46 37 36 36 30 22 9 354 347 352 358 359 356 351 349 350 356 7 17 24 25 14 6 0 356 355 352 349 345 340 336 332 327 323 319 315 312 310 308 307 305 305 306 306 307 307 308 309 312 313 313 311
119 116 111 100 74 62 92 109 94 31 38 57 57 56 63 92 116 126 130 131 339 348 7 25 36 33 353 340 343 351 5 14 21 24 23 23 25 27 25 21 14 7 3 5 6 6 2 358 355 354 359 6 13 19 20 7 355 350 348 348 347 345 343 339 335 331 327 322 318 313 310 307 305 303 301 300 301 301 301 302 304 307 312 314 312 310
127 119 108 109 96 75 64 62 45 36 45 64 69 61 25 21 93 129 142 156 171 334 350 354 359 8 2 332 335 344 4 17 9 358 357 8 14 16 16 13 11 8 6 7 8 8 7 5 2 360 0 0 359 358 358 344 335 333 333 336 337 337 335 332 329 325 322 319 316 312 308 305 302 299 297 299 299 299 300 302 305 309 313 313 310 308
117 111 103 100 99 97 95 87 70 55 57 102 136 159 187 218 106 112 124 139 150 246 331 344 340 330 308 308 324 342 6 22 5 348 348 358 4 7 5 1 359 359 359 0 360 0 4 4 1 358 357 352 345 337 328 315 312 314 318 324 327 329 328 325 321 317 314 312 310 308 306 304 302 301 301 302 303 303 303 306 308 310 312 310 308 306
117 108 105 108 110 113 113 119 130 144 172 175 171 170 168 151 111 97 96 85 35 333 2 37 6 331 314 319 329 353 34 43 19 1 353 351 355 359 1 348 341 342 357 356 344 338 346 359 358 352 351 346 336 323 306 300 301 305 311 318 323 325 325 320 316 311 307 304 303 303 303 304 304 305 304 303 303 303 304 306 307 308 308 308 307 307
139 135 136 144 152 156 147 142 149 165 189 188 171 137 104 87 80 84 93 87 40 359 25 32 13 345 322 315 323 11 55 65 48 22 350 329 328 345 8 347 334 337 2 356 327 313 328 352 350 336 335 329 317 303 293 288 296 306 311 319 325 327 326 320 315 309 304 301 299 298 299 300 301 300 299 296 296 297 299 301 302 303 304 305 305 306
145 144 149 157 165 173 179 158 157 162 175 173 146 121 112 110 98 95 105 114 96 42 49 49 24 350 323 315 325 37 67 75 71 47 346 315 316 335 23 13 348 338 343 336 307 298 315 332 329 319 313 307 303 302 302 299 305 312 318 326 330 331 327 321 314 308 303 299 296 294 294 295 295 294 293 290 289 288 289 290 293 295 297 298 298 299
137 141 148 154 166 179 196 167 158 157 152 145 128 112 115 125 123 115 112 116 103 81 79 98 98 21 305 309 318 350 71 89 88 74 6 311 310 324 13 39 7 329 321 310 294 288 304 317 318 310 300 298 301 305 309 311 315 321 328 334 336 334 330 323 317 310 303 298 294 292 291 290 290 290 290 287 285 283 281 281 282 284 287 288 288 289
136 139 140 151 165 177 179 172 165 154 139 131 118 98 81 87 100 109 112 116 114 113 114 119 138 161 184 266 283 291 82 105 99 80 22 310 303 313 357 43 47 333 309 297 287 280 288 295 298 301 304 309 312 315 316 318 324 331 340 344 344 340 334 330 323 316 308 301 295 291 288 287 287 287 288 287 285 281 278 276 274 275 277 279 280 282
152 151 147 157 164 169 169 176 172 161 152 149 137 118 87 66 68 80 92 110 124 133 137 139 156 174 179 217 247 258 127 112 101 87 35 304 298 308 346 14 23 358 311 289 281 277 281 283 292 301 309 315 317 319 321 328 339 349 355 354 351 348 342 339 335 330 323 313 303 296 290 286 285 284 284 285 284 282 280 276 273 271 271 272 273 275
161 168 171 159 151 149 169 198 190 176 164 153 135 119 112 99 79 73 86 98 113 125 130 140 165 193 204 229 249 263 164 102 94 86 65 290 291 303 340 10 19 1 319 290 280 276 291 294 301 307 312 313 315 318 327 345 358 5 6 5 0 355 349 346 343 340 337 334 328 320 308 300 293 288 285 285 285 283 281 279 277 274 272 270 270 272
162 188 203 171 150 148 174 198 197 181 157 135 120 112 119 114 107 105 121 113 109 107 110 138 176 199 200 221 240 251 178 112 105 101 84 310 298 301 330 20 32 11 321 293 285 285 303 303 304 306 310 312 315 322 343 7 16 16 14 12 7 359 348 345 343 341 342 342 340 337 334 328 321 313 306 299 293 289 288 286 285 283 281 278 276 276
160 185 204 184 164 157 166 177 177 167 147 132 129 131 138 135 138 146 161 146 141 146 159 187 200 202 192 216 235 246 183 129 126 123 105 5 307 298 318 18 43 17 297 283 286 300 320 312 306 307 315 317 320 331 3 19 22 17 14 12 4 352 341 338 336 337 338 337 337 336 335 332 329 326 320 314 308 303 300 299 298 296 294 291 289 289
145 163 178 183 178 163 148 147 149 150 143 139 144 152 158 152 156 162 170 163 160 162 172 191 203 219 248 257 280 307 322 131 127 121 110 129 272 281 312 7 31 354 278 274 286 311 327 317 312 314 321 327 333 348 24 27 19 11 4 358 350 342 337 335 335 335 334 333 331 329 325 323 321 319 316 314 311 309 308 309 308 307 306 302 300 298
125 138 153 170 174 158 127 128 133 139 139 132 129 130 133 131 132 137 144 142 138 133 120 78 40 14 346 327 325 330 328 355 100 110 114 165 237 264 303 1 13 325 277 273 292 320 328 318 315 319 327 340 352 11 28 26 17 8 0 354 348 345 340 340 339 339 339 337 333 329 324 318 312 308 306 304 303 303 304 305 307 309 308 306 303 299
119 129 142 154 152 142 128 131 136 139 135 120 109 104 103 98 93 88 81 80 82 81 74 58 40 7 337 335 329 320 308 330 95 115 121 156 236 269 293 349 23 288 277 284 304 331 332 322 319 322 331 351 6 18 26 24 17 9 2 355 351 347 345 345 346 346 347 346 344 339 334 326 319 312 305 300 298 297 295 298 300 302 303 303 302 301
124 132 139 141 138 134 131 133 135 136 132 124 119 114 109 100 91 80 65 61 67 75 75 66 41 338 321 326 316 304 295 316 80 118 125 134 192 279 289 281 163 254 279 295 314 336 344 330 325 326 334 348 3 11 19 20 17 11 5 360 355 351 349 350 352 354 355 354 352 349 344 338 331 323 315 308 302 298 294 294 293 294 295 296 300 305
129 133 137 137 136 134 133 134 134 133 131 131 132 131 123 108 96 88 77 90 100 99 97 98 82 310 320 315 298 288 289 301 291 137 129 118 121 267 277 263 219 269 286 299 308 321 334 331 323 320 326 326 339 355 12 15 16 14 10 7 3 359 358 359 0 2 1 359 357 353 349 344 338 332 327 320 313 307 302 297 293 291 291 292 301 320
130 134 135 135 135 135 135 136 137 137 138 140 141 140 131 115 111 124 179 174 133 109 109 127 150 197 273 274 278 282 291 282 245 192 136 109 119 238 260 267 298 323 298 305 308 316 330 321 309 304 307 308 317 338 0 10 13 13 12 11 11 11 10 10 8 6 4 1 357 353 349 345 341 337 333 329 324 319 313 307 303 299 298 307 341 24
115 119 118 114 112 111 112 116 125 135 142 148 148 145 134 125 135 158 185 160 131 114 119 141 155 169 195 249 284 300 299 275 236 185 131 108 129 240 259 305 3 15 3 342 338 335 334 312 295 289 294 304 312 326 343 3 9 9 6 10 13 15 16 14 11 7 3 359 355 352 348 345 341 339 336 332 328 324 320 316 312 311 322 1 32 36
65 73 72 60 56 54 54 52 58 79 116 136 137 133 131 131 141 154 160 144 133 128 139 151 158 159 156 92 345 325 298 277 239 164 126 119 149 240 261 20 13 13 59 47 27 1 330 307 293 283 289 304 309 315 325 354 0 359 354 2 7 11 13 12 9 5 1 357 354 351 348 345 343 340 337 333 329 325 321 318 316 325 53 73 71 46
34 39 36 26 22 23 27 28 26 24 29 55 82 100 119 126 135 141 143 142 140 140 148 157 161 159 145 124 118 263 275 270 241 156 124 126 154 195 147 122 76 336 81 99 88 54 313 301 299 302 312 311 308 308 317 345 357 352 341 352 358 2 3 4 3 0 357 355 353 352 350 348 346 344 341 336 332 327 322 317 318 331 93 106 106 293
47 46 40 19 13 15 23 25 23 21 23 36 50 69 100 124 136 142 146 149 147 144 147 154 160 160 156 156 168 194 238 254 228 173 129 124 133 153 135 131 129 109 308 115 127 141 184 266 291 307 323 317 311 310 313 338 1 359 346 354 350 348 350 353 355 354 350 351 351 351 351 351 350 348 346 342 338 332 326 321 319 322 102 141 179 238
57 47 34 21 17 21 27 25 24 21 19 21 27 40 62 120 144 151 154 155 151 146 144 149 153 156 157 165 187 213 243 255 228 190 152 124 116 124 126 122 122 116 357 46 102 133 159 218 273 301 314 310 308 307 309 322 347 9 359 359 342 330 334 342 346 345 340 342 343 345 346 348 349 349 349 347 344 338 333 327 324 323 323 191 195 222
55 43 31 22 18 18 19 20 19 15 3 351 345 4 58 120 157 161 162 161 158 153 150 151 154 157 156 166 211 254 268 263 238 198 158 128 122 133 137 138 140 135 100 57 53 69 116 225 268 295 307 306 303 298 296 301 310 317 312 322 311 310 316 331 336 334 330 332 333 334 337 340 343 345 346 347 346 343 339 335 330 328 328 308 251 220
53 41 28 24 19 13 6 3 1 353 333 308 284 246 183 182 184 179 175 172 170 167 161 160 159 159 159 163 182 227 258 256 233 189 147 133 129 132 137 165 165 151 129 128 111 86 7 269 255 257 294 306 305 298 289 283 286 287 272 258 263 274 288 309 321 324 322 326 323 321 323 326 331 335 338 342 344 345 344 341 337 333 330 324 316 296
64 43 21 21 20 14 350 337 331 322 302 282 262 234 201 192 192 191 189 182 182 182 180 175 168 164 162 163 171 192 226 238 221 184 149 138 131 130 140 182 176 156 135 141 146 148 168 251 257 253 269 291 298 297 294 291 297 304 300 288 282 279 275 276 291 314 319 319 316 313 313 316 317 319 321 335 341 344 345 343 340 337 332 328 325 320
82 60 344 2 24 23 287 298 292 282 271 266 258 240 206 192 186 186 183 179 183 186 189 188 187 183 180 170 174 183 199 204 199 179 154 140 131 130 145 176 178 166 148 152 155 157 150 193 287 291 269 239 255 276 293 310 326 332 321 306 296 292 291 300 288 175 269 293 296 298 300 303 306 309 310 327 336 341 343 341 338 336 335 332 328 324
110 197 269 259 218 192 208 242 248 244 241 250 256 251 205 173 164 156 142 138 146 165 181 187 195 206 209 198 190 184 170 168 173 172 157 141 131 128 141 158 179 183 171 162 156 150 142 149 225 283 276 253 252 261 280 309 323 320 305 296 288 285 287 292 275 221 229 275 287 293 296 300 304 309 311 325 335 342 339 332 328 329 333 332 329 325
170 212 241 229 211 196 197 213 222 227 227 239 250 244 132 114 106 102 96 96 96 100 114 144 167 205 248 268 251 213 160 166 172 172 163 151 141 136 142 153 178 194 192 170 154 146 146 158 176 201 238 262 271 276 284 296 301 299 300 304 305 301 288 279 261 247 247 276 297 301 304 307 310 311 306 319 333 337 328 315 310 314 329 334 329 323
190 209 230 226 212 199 198 209 216 218 217 244 53 76 87 82 77 75 74 75 74 71 68 71 70 54 7 332 311 285 216 185 181 177 170 170 161 152 150 162 173 180 181 172 159 152 153 166 179 190 198 233 272 286 289 286 285 294 309 319 321 314 305 298 284 268 255 252 274 286 292 294 295 292 290 292 291 288 280 279 285 293 306 320 322 318
191 209 231 231 222 209 208 213 209 176 124 72 58 59 73 77 78 73 66 57 49 43 41 50 45 22 355 343 323 294 253 217 201 193 187 187 180 171 163 170 169 166 162 166 169 169 166 173 186 202 214 235 263 277 278 273 280 290 301 300 293 289 294 297 299 304 310 257 243 247 266 285 292 292 285 281 269 254 244 244 254 264 272 227 191 205
200 208 220 222 224 228 256 297 20 78 81 74 73 73 84 97 106 105 100 81 39 12 22 45 49 22 343 328 321 309 274 235 217 208 201 197 192 186 181 180 174 164 155 159 175 190 191 187 195 209 220 230 252 267 272 268 272 279 285 283 291 298 302 300 303 322 330 284 270 265 276 288 290 287 281 279 271 262 252 241 244 252 257 229 198 189
208 209 211 209 209 218 268 24 48 59 66 67 68 63 48 67 100 116 122 133 144 76 38 66 82 88 350 312 313 314 309 287 250 225 211 204 200 197 194 189 180 168 157 159 174 200 212 209 212 213 207 207 233 256 270 272 270 266 259 261 284 305 309 299 298 300 286 284 283 283 285 280 274 268 267 265 265 263 262 258 260 262 261 244 221 214
201 203 196 189 175 76 54 51 52 56 68 85 102 96 10 38 84 106 112 126 131 116 83 80 84 87 80 302 300 305 308 308 302 278 228 212 205 201 199 191 182 174 166 168 173 184 200 217 222 217 198 206 234 252 263 267 267 259 246 240 238 241 245 266 284 302 308 300 296 290 280 277 275 275 275 267 262 260 261 260 264 267 266 253 239 234
170 155 106 77 73 74 77 68 63 63 73 102 153 193 169 121 118 120 121 124 122 115 110 101 92 83 4 282 288 298 307 311 316 317 305 246 217 207 196 188 184 183 183 183 179 176 180 200 213 215 204 217 234 246 255 261 264 263 255 243 236 234 235 249 265 282 290 292 290 286 280 282 291 298 294 281 272 264 257 257 261 265 266 260 252 247
130 122 103 85 87 101 128 111 87 77 69 58 256 230 169 128 119 125 133 132 131 132 138 117 123 146 215 243 268 298 311 314 318 323 329 328 306 229 189 184 184 188 192 194 189 183 181 187 191 196 204 226 237 242 244 250 256 260 260 252 247 246 251 256 257 257 259 269 275 278 281 295 308 294 282 279 274 268 259 251 249 251 257 256 253 249
159 160 160 139 131 132 134 104 94 90 85 268 258 244 177 132 124 128 133 136 137 137 133 120 141 173 200 207 207 206 242 288 299 307 315 323 330 322 179 187 194 199 200 203 204 203 202 196 193 194 206 231 243 246 244 241 243 247 253 252 251 252 259 258 252 243 234 245 256 266 282 329 312 284 274 276 276 272 267 255 246 242 242 243 243 242
176 176 172 160 152 153 158 140 131 139 178 231 249 248 205 170 164 161 143 148 145 143 140 141 166 193 207 208 202 193 192 218 248 270 285 293 302 289 202 192 194 200 206 210 213 216 217 214 209 206 210 226 242 251 252 244 238 237 242 245 250 256 263 263 258 246 232 238 242 244 243 254 265 271 277 283 284 281 276 268 256 245 239 234 231 232
176 176 175 166 165 174 190 177 168 170 193 216 235 250 245 224 206 191 162 157 154 155 163 177 191 206 218 223 216 207 201 210 223 241 256 260 268 261 220 192 185 187 198 210 218 224 230 229 224 220 219 225 236 248 255 249 241 234 235 241 246 253 262 266 265 259 248 244 241 238 230 236 243 252 267 280 285 284 282 278 268 257 250 239 231 228
180 180 176 174 181 191 199 188 186 191 205 212 221 232 247 261 238 173 147 151 158 169 181 190 199 211 225 228 223 214 207 209 219 234 246 242 229 208 194 176 171 172 183 197 213 225 235 238 233 229 225 225 229 236 248 249 247 242 243 243 241 242 250 261 264 262 255 252 248 245 241 246 246 248 256 271 280 283 284 281 275 267 260 250 240 236
192 189 184 186 194 201 203 196 195 200 207 210 212 214 218 212 122 97 109 148 173 189 200 200 205 215 229 232 228 218 209 207 213 225 236 231 217 197 187 173 170 171 177 192 205 213 222 238 249 246 238 229 225 224 234 238 241 244 248 244 236 228 231 247 255 258 257 253 249 244 241 248 250 250 246 264 278 285 288 285 280 272 264 261 263 266